Retour au catalogue

CZ-6A DEB

ActifPO
NORAD 61823·DEBRIS·🇨🇳 China

Lancé Aug 6, 2024 depuis Taiyuan Satellite Launch Center

Loading…

Prochains Passages (prochaines 24 heures)

TLE

FraisSource: Space-Track

Époque: Sep 14, 2026, 11:43 UTC

1 61823U 24140ACP 26257.48887817  .00001925  00000-0  10472-2 0  9997
2 61823  89.0667 272.3460 0107969 302.4815  56.5967 14.09011591103246

Suivez CZ-6A DEB en temps réel avec AllMySat

Download on the App Store